• Processing (Info)

  • MPEC 2006-K25 : 2006 KP1

    The following Minor Planet Electronic Circular may be linked-to from your own Web pages, but must not otherwise be redistributed electronically.

    A form allowing access to any MPEC is at the bottom of this page.


    Read MPEC 2006-K24 Read MPEC 2006-K26


    M.P.E.C. 2006-K25                                Issued 2006 May 22, 13:55 UT
    
         The Minor Planet Electronic Circulars contain information on unusual
             minor planets and routine data on comets.  They are published
       on behalf of Commission 20 of the International Astronomical Union by the
              Minor Planet Center, Smithsonian Astrophysical Observatory,
                              Cambridge, MA 02138, U.S.A.
    
                      Supported in part by the Brinson Foundation
                      Supported in part by the TABASGO Foundation
                 Prepared using the Tamkin Foundation Computer Network
    
                                  MPC@CFA.HARVARD.EDU
              URL http://cfa-www.harvard.edu/iau/mpc.html  ISSN 1523-6714
    
                                       2006 KP1
    
    Observations:
         K06K01P* C2006 05 19.31442 13 00 29.26 -04 17 56.7          22.2 V EK025G96
         K06K01P  C2006 05 19.31982 13 00 28.94 -04 17 49.7          21.4 V EK025G96
         K06K01P  C2006 05 19.32531 13 00 28.69 -04 17 44.0          20.9 V EK025G96
         K06K01P  C2006 05 19.33061 13 00 28.47 -04 17 38.1          20.8 V EK025G96
         K06K01P  C2006 05 20.20005 12 59 54.32 -04 00 54.7          21.7 V EK025291
         K06K01P  C2006 05 20.20409 12 59 54.13 -04 00 50.4          21.3 V EK025291
         K06K01P  C2006 05 20.20785 12 59 53.94 -04 00 46.1          21.3 V EK025291
         K06K01P  C2006 05 21.21622 12 59 16.15 -03 41 36.7          20.9 V EK025G96
         K06K01P  C2006 05 21.22120 12 59 15.90 -03 41 30.8          21.0 V EK025G96
         K06K01P  C2006 05 21.22616 12 59 15.72 -03 41 25.1          21.0 V EK025G96
         K06K01P  C2006 05 21.23112 12 59 15.46 -03 41 19.4          21.0 V EK025G96
         K06K01P HC2006 05 22.20259 12 58 42.37 -03 23 04.9                 EK025291
         K06K01P  C2006 05 22.20641 12 58 42.27 -03 23 00.6                 EK025291
         K06K01P  C2006 05 22.21068 12 58 42.07 -03 22 56.0                 EK025291
         K06K01P  C2006 05 22.21662 12 58 41.77 -03 22 49.8          21.6 V EK025G96
         K06K01P  C2006 05 22.22156 12 58 41.59 -03 22 44.0          21.8 V EK025G96
         K06K01P  C2006 05 22.22656 12 58 41.37 -03 22 38.1          21.4 V EK025G96
         K06K01P  C2006 05 22.23155 12 58 41.19 -03 22 33.1          21.1 V EK025G96
    
    Observer details:
    291 LPL/Spacewatch II.  Observers M. T. Read, T. H. Bressi.  1.8-m f/2.7
        reflector + CCD.
    G96 Mt. Lemmon Survey.  Observers S. M. Larson, A. D. Grauer, R. Hill.
        Measurers E. C. Beshore, E. J. Christensen, G. J. Garradd, A. R. Gibbs,
        A. D. Grauer, R. E. Hill, R. A. Kowalski, S. M. Larson, R. H. McNaught.
        1.5-m reflector + CCD.
    
    Orbital elements:
    2006 KP1                                                 Earth MOID = 0.1254 AU
    Epoch 2006 Mar. 6.0 TT = JDT 2453800.5                  MPC
    M 311.63045              (2000.0)            P               Q
    n   0.31738285     Peri.   76.65663     +0.44013644     +0.89486661
    a   2.1285331      Node   219.72402     -0.86219125     +0.39811937
    e   0.4975372      Incl.    6.65994     -0.25081101     +0.20177890
    P   3.11           H   21.0           G   0.15           U   8
    Residuals in seconds of arc
    060519 G96  0.2+  0.3-    060520 291  0.1-  0.1+    060522 291  0.5+  0.2+
    060519 G96  0.9-  0.4+    060521 G96  0.0   0.5-    060522 291  0.0   0.0
    060519 G96  0.8-  0.3-    060521 G96  0.5-  0.3-    060522 G96  0.7-  0.3-
    060519 G96  0.4-  0.6-    060521 G96  0.1-  0.2-    060522 G96  0.5-  0.0
    060520 291  0.2+  0.5+    060521 G96  0.8-  0.1-    060522 G96  0.8-  0.3+
    060520 291  0.2+  0.2+    060522 291  0.3-  0.2+    060522 G96  0.6-  0.3-
    
    Ephemeris:
    2006 KP1                 a,e,i = 2.13, 0.50, 7                   q = 1.0695
    Date    TT    R. A. (2000) Decl.     Delta      r     Elong.  Phase     V
    2006 05 15    13 03.92   -05 42.7    0.461    1.406   142.9    25.7    21.2
    2006 05 25    12 57.39   -02 31.8    0.442    1.343   130.5    35.0    21.3
    2006 06 04    12 56.42   +00 09.9    0.430    1.282   119.6    43.5    21.4
    2006 06 14    13 01.58   +02 15.0    0.419    1.226   110.3    51.0    21.4
    2006 06 24    13 12.84   +03 44.4    0.407    1.176   102.8    57.4    21.5
    2006 07 04    13 30.16   +04 42.0    0.392    1.134    97.0    62.9    21.5
    2006 07 14    13 53.56   +05 13.1    0.374    1.101    93.0    67.2    21.4
    2006 07 24    14 23.35   +05 20.8    0.352    1.079    90.7    70.2    21.4
    2006 08 03    15 00.37   +05 04.6    0.330    1.070    90.5    71.5    21.2
    2006 08 13    15 45.50   +04 21.8    0.310    1.073    92.7    70.6    21.1
    2006 08 23    16 38.96   +03 07.8    0.297    1.089    97.2    67.1    20.9
    2006 09 02    17 39.10   +01 24.9    0.298    1.117   103.5    61.5    20.8
    2006 09 12    18 41.26   -00 29.5    0.315    1.155   110.4    54.8    20.8
    2006 09 22    19 39.69   -02 11.3    0.352    1.201   116.1    48.7    21.0
    2006 10 02    20 30.84   -03 22.1    0.410    1.255   119.5    44.0    21.2
    2006 10 12    21 13.94   -03 56.9    0.485    1.313   120.5    40.9    21.6
    
    Kyle E. Smalley              (C) Copyright 2006 MPC           M.P.E.C. 2006-K25
    

    Read MPEC 2006-K24 Read MPEC 2006-K26


    MPEC number:

    Enter an MPEC number in one of the following forms:

    • 1997-B01 (the full form)
    • J97B01 (the packed version of the full form)
    • B01 (the abbreviated form)